Location: Mauries
(43.6188°N, 0.3322°W)
Time: 18:53:21
(UTC+00:00)

ARIANE 6 FM1 Upper Stage - Pass Details

Date: 14 January 2026
Orbit: 522 x 609 km, 62.0° (Epoch: 11 February)

Event Time Altitude Azimuth Distance (km) Brightness Sun altitude
Exits shadow 05:13:52 61° 63° (ENE) 605 2.9 -24.5°
Drops below altitude 10° 05:17:40 10° 130° (SE) 1,784 6.0 -23.8°
Sets 05:19:54 0° 134° (SE) 2,683 7.0 -23.4°
